Saint George Island, AK

3:22 PM AKST on February 25, 2017 (GMT -0900)
Saint George

Weather History for PAPB - February, 2013

Change the Weather History Date:

Thursday, February 28, 2013

  Actual Average Record
Temperature  
Mean Temperature 16 °F -  
Max Temperature 19 °F 32 °F 37 °F (2003)
Min Temperature 14 °F 25 °F 10 °F (2001)
Degree Days  
Heating Degree Days 48    
Moisture  
Dew Point 11 °F    
Average Humidity 78    
Maximum Humidity 88    
Minimum Humidity 74    
Precipitation  
Precipitation 0.00 in - - ()
Sea Level Pressure  
Sea Level Pressure 29.76 in    
Wind  
Wind Speed 21 mph (NNE)    
Max Wind Speed 30 mph    
Max Gust Speed 43 mph    
Visibility 9 miles    
Events Snow    
Averages and records for this station are not official NWS values.
T = Trace of Precipitation, MM = Missing Value Source: NWS Daily Summary

Daily Weather History Graph

Daily Weather History Graph

Search for Another Location

Airport or City:

Trip Planner

Search our weather history database for the weather conditions in past years. The results will help you decide how hot, cold, wet, or windy it might be!

Date:

Astronomy

Feb. 28, 2013 Rise Set
Actual Time 9:12 AM AKST 7:51 PM AKST
Civil Twilight 8:34 AM AKST 8:29 PM AKST
Nautical Twilight 7:50 AM AKST 9:12 PM AKST
Astronomical Twilight 7:06 AM AKST 9:56 PM AKST
Moon No Moon Rise 9:43 AM AKST (2/28)
Length of Visible Light 11h 54m
Length of Day
10h 38m
Waning Gibbous, 90% of the Moon is Illuminated
Feb 28
Waning Gibbous
Mar 4
Last Quarter
Mar 11
New
Mar 19
First Quarter
Mar 27
Full

Hourly Weather History & Observations

Time (AKST) Temp. Windchill Dew Point Humidity Pressure Visibility Wind Dir Wind Speed Gust Speed Precip Events Conditions
12:53 AM 14.0 °F -6.8 °F 10.9 °F 88% 29.52 in 4.0 mi North 29.9 mph 41.4 mph 0.00 in   Mist
1:53 AM 15.1 °F -4.7 °F 10.0 °F 80% 29.53 in 4.0 mi NNW 27.6 mph 42.6 mph 0.00 in Snow Light Snow
3:53 AM 18.0 °F -0.8 °F 10.9 °F 74% 29.59 in 5.0 mi North 27.6 mph 39.1 mph 0.00 in   Haze
4:53 AM 18.0 °F 1.3 °F 10.9 °F 74% 29.62 in 5.0 mi North 20.7 mph 40.3 mph N/A   Haze
5:53 AM 16.0 °F -3.8 °F 10.9 °F 81% 29.65 in 6.0 mi North 28.8 mph 42.6 mph 0.00 in   Haze
6:53 AM 18.0 °F 0.2 °F 12.0 °F 78% 29.69 in 7.0 mi North 24.2 mph 41.4 mph N/A   Unknown
7:53 AM 18.0 °F -1.1 °F 12.0 °F 78% 29.70 in 8.0 mi North 28.8 mph 38.0 mph N/A   Unknown
8:53 AM 18.0 °F -0.5 °F 12.9 °F 81% 29.71 in 10.0 mi North 26.5 mph - N/A   Unknown
9:53 AM 18.0 °F 3.1 °F 12.9 °F 81% 29.76 in 10.0 mi North 16.1 mph 24.2 mph N/A   Unknown
10:53 AM 18.0 °F 1.3 °F 12.9 °F 81% 29.77 in 9.0 mi North 20.7 mph 28.8 mph N/A   Partly Cloudy
11:53 AM 18.0 °F 3.1 °F 10.9 °F 74% 29.80 in 10.0 mi NNE 16.1 mph 26.5 mph N/A   Clear
12:53 PM 18.0 °F 0.9 °F 10.9 °F 74% 29.80 in 10.0 mi NNE 21.9 mph 31.1 mph N/A   Clear
1:53 PM 18.0 °F 2.2 °F 12.0 °F 78% 29.82 in 10.0 mi NNE 18.4 mph 23.0 mph N/A   Clear
2:53 PM 19.0 °F 5.6 °F 12.0 °F 74% 29.83 in 10.0 mi NNE 13.8 mph - N/A   Clear
3:53 PM 19.0 °F 9.0 °F 12.0 °F 74% 29.84 in 10.0 mi NNE 8.1 mph - N/A   Clear
4:53 PM 19.0 °F 10.0 °F 12.0 °F 74% 29.85 in 10.0 mi NNE 6.9 mph - N/A   Clear
5:53 PM 18.0 °F 9.8 °F 12.0 °F 78% 29.86 in 10.0 mi NE 5.8 mph - N/A   Clear
6:53 PM 16.0 °F 6.3 °F 10.0 °F 77% 29.86 in 10.0 mi NE 6.9 mph - N/A   Clear
7:53 PM 16.0 °F 10.4 °F 10.0 °F 77% 29.87 in 10.0 mi ENE 3.5 mph - N/A   Partly Cloudy
8:53 PM 15.1 °F 9.4 °F 10.9 °F 84% 29.88 in 10.0 mi East 3.5 mph - N/A   Scattered Clouds
9:53 PM 15.1 °F 5.2 °F 10.0 °F 80% 29.88 in 10.0 mi East 6.9 mph - N/A   Clear
10:53 PM 16.0 °F 8.8 °F 10.9 °F 81% 29.88 in 10.0 mi East 4.6 mph - N/A   Clear
11:53 PM 17.1 °F 1.5 °F 10.9 °F 77% 29.86 in 10.0 mi ESE 17.3 mph - N/A   Clear